User: anonymous   Login
Location: Fort Wayne
(41.1310°N, 85.1290°W)
Time: 04:53:10
(UTC-04:00)
Language:

Meteor 2-9 Rocket - Orbit

View from above orbital plane
View from above orbital plane
View from above satellite
View from above satellite

Ground track
Ground track

The orbit data is extracted from the following two-line orbital elements,

1 13719U 82116B   15244.61356506 -.00000003 +00000-0 -85641-5 0  9991
2 13719 081.2529 281.5798 0072740 060.4928 052.7551 14.14552386687824
Epoch (UTC): 01 September 2015 14:43:32
Eccentricity: 0.0072740
inclination: 81.2529°
perigee height: 791 km
apogee height: 896 km
right ascension of ascending node: 281.5798°
argument of perigee: 60.4928°
revolutions per day: 14.14552386
mean anomaly at epoch: 52.7551°
orbit number at epoch: 68782

The dashed part of the orbit path shows where the satellite is in the earth's shadow,  

DLR